Weather History for Yohin, NT

Change the Weather History Date:

Saturday, May 4, 2013

  Actual Average Record
Temperature  
Mean Temperature 59 °F -  
Max Temperature 68 °F - - ()
Min Temperature 50 °F - - ()
Degree Days  
Heating Degree Days 6    
Growing Degree Days 9 (Base 50)    
Moisture  
Dew Point 33 °F    
Average Humidity 38    
Maximum Humidity 49    
Minimum Humidity 21    
Precipitation  
Precipitation 0.00 in - - ()
Sea Level Pressure  
Sea Level Pressure 29.87 in    
Wind  
Wind Speed 4 mph ()    
Max Wind Speed 8 mph    
Max Gust Speed 20 mph    
T = Trace of Precipitation, MM = Missing Value Source: Averaged Metar Reports

Daily Weather History Graph

Daily Weather History Graph

Search for Another Location

Airport:

Trip Planner

Search our weather history database for the weather conditions in past years. The results will help you decide how hot, cold, wet, or windy it might be!

Date:

Astronomy

May. 04, 2013 Rise Set
Actual Time 5:56 AM MDT 10:29 PM MDT
Civil Twilight 4:56 AM MDT 11:29 PM MDT
Nautical Twilight 3:03 AM MDT 1:30 AM MDT
Astronomical Twilight Sun does not rise Sun does not rise
Moon 4:27 AM MDT (5/4) 4:10 PM MDT (5/4)
Length of Visible Light 18h 32m
Length of Day
16h 32m
Waning Crescent, 26% of the Moon is Illuminated
May 4
Waning Crescent
May 9
New
May 17
First Quarter
May 24
Full
May 31
Last Quarter

Hourly Weather History & Observations

Time (MDT) Temp. Dew Point Humidity Pressure Visibility Wind Dir Wind Speed Gust Speed Precip Events Conditions
12:00 AM 55 °F 27 °F 22% 29.96 in - SW 4.6 mph - -  
12:00 AM 54.7 °F 27.0 °F 34% 29.96 in - SW 4.6 mph - N/A   Unknown
1:00 AM 54.0 °F 28.6 °F 38% 29.96 in - WSW 4.6 mph 19.6 mph N/A   Unknown
2:00 AM 53.2 °F 29.5 °F 40% 29.96 in - West 4.6 mph - N/A   Unknown
3:00 AM 52.5 °F 29.8 °F 42% 29.96 in - West 4.6 mph - N/A   Unknown
4:00 AM 52.3 °F 30.0 °F 42% 29.96 in - West 8.1 mph - N/A   Unknown
5:00 AM 51.6 °F 29.8 °F 43% 29.96 in - WNW 4.6 mph - N/A   Unknown
6:00 AM 51 °F 30 °F 31% 29.96 in - WNW 5.8 mph - -  
6:00 AM 51.3 °F 29.7 °F 44% 29.96 in - WNW 5.8 mph - N/A   Unknown
7:00 AM 51.3 °F 29.8 °F 44% 29.95 in - West 5.8 mph - N/A   Unknown
8:00 AM 50.9 °F 31.1 °F 47% 29.95 in - WSW 4.6 mph - N/A   Unknown
9:00 AM 52.3 °F 31.8 °F 46% 29.94 in - West 2.3 mph - N/A   Unknown
10:00 AM 52.0 °F 33.1 °F 49% 29.93 in - SSW 4.6 mph - N/A   Unknown
11:00 AM 52.5 °F 33.6 °F 49% 29.92 in - East 1.2 mph - N/A   Unknown
12:00 PM 56 °F 34 °F 31% 29.90 in - East 2.3 mph - -  
12:00 PM 55.6 °F 34.2 °F 44% 29.90 in - East 2.3 mph - N/A   Unknown
1:00 PM 57.9 °F 34.0 °F 41% 29.87 in - East 2.3 mph - N/A   Unknown
2:00 PM 61.2 °F 33.8 °F 36% 29.85 in - East 3.5 mph - N/A   Unknown
3:00 PM 64.0 °F 35.6 °F 35% 29.82 in - SSE 3.5 mph - N/A   Unknown
4:00 PM 65.1 °F 36.9 °F 35% 29.80 in - WSW 1.2 mph - N/A   Unknown
5:00 PM 65.8 °F 37.0 °F 35% 29.78 in - West 2.3 mph - N/A   Unknown
6:00 PM 67 °F 37 °F 21% 29.74 in - South 2.3 mph - -  
6:00 PM 67.1 °F 36.7 °F 33% 29.74 in - South 2.3 mph - N/A   Unknown
7:00 PM 68.4 °F 35.8 °F 30% 29.73 in - West 5.8 mph - N/A   Unknown
8:00 PM 64.6 °F 35.1 °F 33% 29.70 in - South 4.6 mph - N/A   Unknown
9:00 PM 63.3 °F 33.8 °F 33% 29.70 in - WSW 4.6 mph - N/A   Unknown
10:00 PM 62.8 °F 33.3 °F 33% 29.68 in - SSW 4.6 mph - N/A   Unknown
11:00 PM 57.6 °F 33.6 °F 41% 29.68 in - SW 3.5 mph - N/A   Unknown